User: anonymous   Login
Location: Unspecified
(0.0000°N, 0.0000°E)
Time: 10:16:11
(UTC+00:00)
Language:

XW-2A - Orbit

View from above orbital plane
View from above orbital plane
View from above satellite
View from above satellite

Ground track
Ground track

The orbit data is extracted from the following two-line orbital elements,

1 40903U 15049E   18197.14608050  .00001495  00000-0  38781-4 0  9995
2 40903  97.3820 232.2877 0012380 288.1401  71.8497 15.40612592158269
Epoch (UTC): 16 July 2018 03:30:21
Eccentricity: 0.0012380
inclination: 97.3820°
perigee height: 436 km
apogee height: 453 km
right ascension of ascending node: 232.2877°
argument of perigee: 288.1401°
revolutions per day: 15.40612592
mean anomaly at epoch: 71.8497°
orbit number at epoch: 15826

The dashed part of the orbit path shows where the satellite is in the earth's shadow,  

DLR